Home   Weather   Hallein   Past weeks

Flag for Austria Past Weather in Hallein, Salzburg, Austria — Yesterday and Last 2 Weeks

Now
39 °F

Sunny.


Feels Like: 34 °F
Forecast: 36 / 47 °F
Wind: 7 mph from South

Location: Salzburg-Flughafen

Current Time: Dec 9, 2016 at 4:40:18 pm

Latest Report: Dec 9, 2016 at 3:50 pm


Visibility: 10 mi

Pressure: 30.45 "Hg

Humidity: 61%

Dew Point: 27 °F

Location of HalleinLocation

Past Weather in Hallein — Graph

°F

Hallein Temperature Yesterday

Maximum temperature yesterday: 46 °F (at 2:50 pm)
Minimum temperature yesterday: 21 °F (at 7:20 am)
Average temperature yesterday: 30 °F

High & Low Weather Summary for the Past Weeks

 TemperatureHumidityPressure
High48 °F (Dec 9, 1:50 pm)100% (Nov 27, 4:50 am)30.60 "Hg (Nov 27, 4:50 am)
Low18 °F (Nov 29, 7:20 am)40% (Dec 9, 2:20 pm)29.98 "Hg (Nov 27, 1:50 pm)
Average34 °F83%30.29 "Hg
* Reported Nov 24 3:20 pm — Dec 9 3:20 pm, Hallein, Weather by CustomWeather, © 2016

Note: Actual official high and low records may vary slightly from our data, if they occured in-between our weather recording intervals... More about our weather records

Advertising

Hallein Weather History for the Previous 24 Hours

Scroll right to see more
 ConditionsComfort  
Time TempWeatherWind HumidityBarometerVisibility
3:20 pm
Fri, Dec 9
45 °FPassing clouds.6 mph53%30.45 "HgN/A
2:50 pm46 °FPassing clouds.5 mph50%30.48 "HgN/A
2:20 pm48 °FPassing clouds.2 mph40%30.48 "HgN/A
1:50 pm48 °FPassing clouds.2 mph43%30.48 "HgN/A
1:20 pm45 °FScattered clouds.3 mph53%30.48 "HgN/A
12:50 pm45 °FPartly sunny.5 mph49%30.48 "HgN/A
12:20 pm45 °FScattered clouds.3 mph49%30.48 "HgN/A
11:50 am45 °FScattered clouds.7 mph42%30.48 "HgN/A
11:20 am43 °FPassing clouds.6 mph46%30.48 "HgN/A
10:50 am41 °FPassing clouds.6 mph53%30.48 "HgN/A
10:20 am41 °FPassing clouds.6 mph49%30.51 "HgN/A
9:50 am39 °FSunny.6 mph52%30.51 "Hg10 mi
9:20 am37 °FSunny.6 mph60%30.48 "Hg10 mi
8:50 am30 °FSunny.7 mph69%30.48 "Hg10 mi
8:20 am30 °FPassing clouds.5 mph69%30.48 "HgN/A
7:50 am30 °FSunny.2 mph69%30.48 "Hg10 mi
7:20 am30 °FPassing clouds.5 mph64%30.48 "HgN/A
6:50 am32 °FClear.8 mph64%30.48 "Hg10 mi
6:20 am32 °FPassing clouds.6 mph64%30.48 "HgN/A
5:20 am36 °FChilly.8 mph56%30.48 "HgN/A
4:50 am34 °FChilly.7 mph60%30.45 "HgN/A
4:20 am34 °FPassing clouds.8 mph65%30.45 "HgN/A
3:50 am36 °FChilly.8 mph56%30.45 "HgN/A
3:20 am34 °FChilly.8 mph60%30.45 "HgN/A
2:50 am34 °FPassing clouds.8 mph65%30.45 "HgN/A
2:20 am34 °FPassing clouds.9 mph65%30.45 "HgN/A
1:50 am36 °FChilly.7 mph60%30.48 "HgN/A
1:20 am36 °FPassing clouds.12 mph60%30.45 "HgN/A
12:50 am37 °FPassing clouds.8 mph56%30.48 "HgN/A
12:20 am39 °FPassing clouds.10 mph52%30.48 "HgN/A
11:50 pm
Thu, Dec 8
34 °FPassing clouds.8 mph70%30.48 "HgN/A
11:20 pm32 °FOvercast.7 mph69%30.51 "HgN/A
10:50 pm30 °FClear.5 mph75%30.51 "Hg10 mi
10:20 pm28 °FPassing clouds.5 mph80%30.51 "HgN/A
9:50 pm32 °FClear.2 mph69%30.51 "Hg10 mi
9:20 pm30 °FClear.1 mph75%30.51 "Hg10 mi
8:50 pm30 °FClear.2 mph75%30.51 "Hg10 mi
8:20 pm34 °FPassing clouds.3 mph65%30.51 "HgN/A
7:50 pm32 °FClear.7 mph75%30.48 "Hg10 mi
7:20 pm32 °FClear.6 mph75%30.51 "Hg10 mi
6:50 pm32 °FClear.6 mph80%30.51 "Hg10 mi
6:20 pm32 °FClear.5 mph80%30.48 "Hg10 mi
5:50 pm34 °FClear.5 mph75%30.48 "Hg10 mi
5:20 pm36 °FClear.3 mph70%30.48 "Hg10 mi
4:50 pm34 °FClear.5 mph81%30.48 "Hg10 mi
4:20 pm36 °FClear.3 mph75%30.48 "Hg10 mi
Weather by CustomWeather, © 2016

See weather overviewHow to use our weather pages